Hourly Data Report for October 11, 2014

All times are specified in Local Standard Time (LST). Add 1 hour to adjust for Daylight Saving Time where and when it is observed.

GJOA HAVEN A
NUNAVUT

68°38'08.000" N
95°51'01.000" W
46.90 m
2302337
71597
YHK

Download Data

Hourly Data (October 2014)
Hourly Data Report for October 11, 2014
Temp Definition
°C
Dew Point Temp Definition
°C
Rel Hum Definition
%
Wind Dir Definition
10's deg

Wind Spd Definition
km/h
Visibility Definition
km
Stn Press Definition
kPa
Hmdx Definition


Wind Chill Definition


Weather Definition


TIME
00:00 Legend Double Dagger -6.4 -6.7 98 36 24 16.1 100.14   -14 LegendNANA
01:00 Legend Double Dagger -7.8 -8.5 95 35 32 16.1 100.11   -17 LegendNANA
02:00 Legend Double Dagger -7.0 -7.4 97 35 48 9.7 100.06   -18 Snow
03:00 Legend Double Dagger -7.1 -7.5 97 1 39 16.1 100.04   -17 LegendNANA
04:00 Legend Double Dagger -7.0 -7.4 97 36 28 16.1 99.99   -15 LegendNANA
05:00 Legend Double Dagger -6.6 -7.0 97 1 26 16.1 99.95   -15 LegendNANA
06:00 Legend Double Dagger -6.9 -7.4 97 1 41 16.1 99.88   -17 LegendNANA
07:00 Legend Double Dagger -7.0 -7.4 97 1 34 14.5 99.87   -16 LegendNANA
08:00 Legend Double Dagger -7.4 -7.7 98 2 26 11.3 99.83   -16 LegendNANA
09:00 Legend Double Dagger -7.9 -8.7 94 2 26 16.1 99.78   -16 LegendNANA
10:00 Legend Double Dagger -7.6 -8.8 91 36 28 16.1 99.77   -16 LegendNANA
11:00 Legend Double Dagger -7.2 -8.5 91 1 26 16.1 99.75   -15 LegendNANA
12:00 Legend Double Dagger -6.4 -8.2 87 2 30 16.1 99.75   -15 LegendNANA
13:00 Legend Double Dagger -6.2 -7.8 88 3 21 16.1 99.73   -13 LegendNANA
14:00 Legend Double Dagger -5.9 -7.5 89 2 17 16.1 99.75   -12 LegendNANA
15:00 Legend Double Dagger -5.5 -7.5 86 2 15 9.7 99.74   -11 Fog
16:00 Legend Double Dagger -5.4 -7.1 88 2 9 16.1 99.74   -9 LegendNANA
17:00 Legend Double Dagger -5.2 -6.8 89 3 11 16.1 99.72   -10 LegendNANA
18:00 Legend Double Dagger -5.1 -6.4 91 1 11 16.1 99.73   -10 LegendNANA
19:00 Legend Double Dagger -5.3 -6.0 95 34 9 14.5 99.74   -9 LegendNANA
20:00 Legend Double Dagger -5.2 -6.0 94 34 11 14.5 99.75   -10 LegendNANA
21:00 Legend Double Dagger -5.1 -5.9 94 35 8 16.1 99.75   -9 LegendNANA
22:00 Legend Double Dagger -5.1 -6.1 93 35 8 16.1 99.75   -9 LegendNANA
23:00 Legend Double Dagger -5.1 -6.6 89 31 5 16.1 99.76   -7 LegendNANA

Notes on Data Quality.

Legend

  • E = Estimated
  • M = Missing
  • NA = Not Available
  • ‡ = Partner data that is not subject to review by the National Climate Archives
Date modified: